WGS F7 (USA 263)

Last updated on Mon Oct 14 2024 00:02:40 GMT+0000 (Coordinated Universal Time)

1 40746U 15036A 24287.23349139 .00000017 00000+0 00000+0 0 9999 2 40746 0.0039 206.7790 0000225 315.9319 118.6570 1.00270936 33738
UTC large
Height (km)
Speed (km/s)
/
Latitude / Longitude
Inclination (degrees)
Orbital Period (minutes)
Azimuth
Elevation
Range (km)
Doppler Factor

Next 0 passes for location: London (51.5072 / 0.1276)

Sorry there are no passes over London.